TimePST,TemperatureF,Dew PointF,Humidity,Sea Level PressureIn,VisibilityMPH,Wind Direction,Wind SpeedMPH,Gust SpeedMPH,PrecipitationIn,Events,Conditions,WindDirDegrees,DateUTC
12:53 AM,26.1,21.0,81,29.98,8.0,WNW,4.6,-,N/A,,Clear,300,2013-02-20 08:53:00
1:53 AM,25.0,19.9,81,29.99,9.0,Calm,Calm,-,N/A,,Clear,0,2013-02-20 09:53:00
2:53 AM,21.9,18.0,85,30.00,10.0,Calm,Calm,-,N/A,,Clear,0,2013-02-20 10:53:00
3:53 AM,21.2,17.6,86,29.97,10.0,West,4.6,-,N/A,,Clear,260,2013-02-20 11:53:00
4:53 AM,21.0,16.0,81,30.02,10.0,WNW,3.5,-,N/A,,Clear,290,2013-02-20 12:53:00
5:53 AM,21.9,17.1,82,30.04,10.0,NNW,4.6,-,N/A,,Clear,330,2013-02-20 13:53:00
6:53 AM,21.0,16.0,81,30.05,10.0,Calm,Calm,-,N/A,,Clear,0,2013-02-20 14:53:00
7:53 AM,26.1,19.0,75,30.05,10.0,Calm,Calm,-,N/A,,Clear,0,2013-02-20 15:53:00
8:53 AM,30.9,24.1,76,30.05,10.0,Calm,Calm,-,N/A,,Clear,0,2013-02-20 16:53:00
9:53 AM,37.9,25.0,60,30.04,10.0,Calm,Calm,-,N/A,,Clear,0,2013-02-20 17:53:00
10:53 AM,43.0,25.0,49,30.03,10.0,Calm,Calm,-,N/A,,Clear,0,2013-02-20 18:53:00
11:53 AM,46.0,26.1,46,30.01,-9999.0,Calm,Calm,-,N/A,,Clear,0,2013-02-20 19:53:00
12:53 PM,46.0,26.1,46,29.99,10.0,SSE,3.5,-,N/A,,Clear,160,2013-02-20 20:53:00
1:53 PM,46.9,25.0,42,29.98,10.0,Calm,Calm,-,N/A,,Partly Cloudy,0,2013-02-20 21:53:00
2:53 PM,48.0,25.0,41,29.96,10.0,SE,4.6,-,N/A,,Scattered Clouds,130,2013-02-20 22:53:00
3:53 PM,46.9,27.0,46,29.96,10.0,Calm,Calm,-,N/A,,Clear,0,2013-02-20 23:53:00
4:53 PM,46.9,25.0,42,29.98,10.0,Calm,Calm,-,N/A,,Scattered Clouds,0,2013-02-21 00:53:00
5:53 PM,43.0,26.1,51,29.99,10.0,Calm,Calm,-,N/A,,Overcast,0,2013-02-21 01:53:00
6:53 PM,39.9,27.0,60,30.01,10.0,West,3.5,-,N/A,,Overcast,260,2013-02-21 02:53:00
7:53 PM,37.0,24.1,59,30.01,10.0,West,4.6,-,N/A,,Scattered Clouds,270,2013-02-21 03:53:00
8:53 PM,32.0,23.0,69,30.02,10.0,WSW,3.5,-,N/A,,Clear,250,2013-02-21 04:53:00
9:53 PM,30.0,21.9,72,30.02,10.0,West,3.5,-,N/A,,Partly Cloudy,270,2013-02-21 05:53:00
10:53 PM,28.9,21.9,75,30.02,10.0,Calm,Calm,-,N/A,,Partly Cloudy,0,2013-02-21 06:53:00
11:53 PM,26.1,21.0,81,30.02,9.0,Variable,3.5,-,N/A,,Clear,0,2013-02-21 07:53:00